sat.trackr.live / text

‹ back to catalog

STARLINK-32623

NORAD 62152 · 2024-224P

PAYLOAD ACTIVE UNKNOWN

§ Identity

Operator
Country
US
Launch date
2024-11-30
Launch site
AFETR
Launch vehicle
Mass (kg)
RCS (m²)

Purposes: comms

External: N2YO · Heavens-Above · Gunter

§ Orbital elements

Epoch: 2026-09-21T08:07:23.733696Z

Period
94.27 min
Inclination
42.9995°
Eccentricity
0.0001470
Mean motion
15.27577293 rev/d
Perigee alt
482.0 km
Apogee alt
484.1 km
Semi-major
6,861.2 km
B*
2.7063e-4
RAAN
136.4961°
Arg perigee
270.6834°
Mean anomaly
89.3849°
Rev number
10,230

§ Raw data

STARLINK-326231 62152U 24224P   26264.33846914  .00007192  00000+0  27063-3 0  99972 62152  42.9995 136.4961 0001470 270.6834  89.3849 15.27577293102303

JSON: /api/v1/satellites/62152 · /tle

For live sub-satellite position, see the globe view (requires WebGL).

§ Visibility from observer

Set your observer location to see the next 7 days of passes ≥ 10°. The values pass through the URL so the page stays shareable.

No JS? Fill the form by hand. The geolocation button needs JavaScript.